Weather History for Lewisburg, WV

Change the Weather History Date:

Monday, July 21, 2014

  Actual Average Record
Temperature  
Mean Temperature 74 °F 70 °F  
Max Temperature 83 °F 82 °F 91 °F (2011)
Min Temperature 64 °F 59 °F 45 °F (1996)
Degree Days  
Heating Degree Days 0    
Month to date heating degree days 10  
Since 1 June heating degree days 23  
Since 1 July heating degree days 10  
Cooling Degree Days 9    
Month to date cooling degree days 122  
Year to date cooling degree days 319  
Since 1 June cooling degree days 286  
Growing Degree Days 22 (Base 50)    
Moisture  
Dew Point 64 °F    
Average Humidity 73    
Maximum Humidity 93    
Minimum Humidity 53    
Precipitation  
Precipitation 0.00 in 0.13 in 0.07 in (2013)
Month to date precipitation 0.44 2.67  
Year to date precipitation 14.80 23.58  
Snow  
Snow 0.00 in - - ()
Month to date snowfall 0.0  
Since 1 June snowfall 0.0  
Since 1 July snowfall 0.0  
Snow Depth 0.00 in    
Sea Level Pressure  
Sea Level Pressure 30.20 in    
Wind  
Wind Speed 2 mph (ESE)    
Max Wind Speed 8 mph    
Max Gust Speed -    
Visibility 9 miles    
Events      
T = Trace of Precipitation, MM = Missing Value Source: NWS Daily Summary

Daily Weather History Graph

Daily Weather History Graph

Search for Another Location

Airport:

Trip Planner

Search our weather history database for the weather conditions in past years. The results will help you decide how hot, cold, wet, or windy it might be!

Date:

Astronomy

Jul. 21, 2014 Rise Set
Actual Time 6:15 AM EDT 8:39 PM EDT
Civil Twilight 5:45 AM EDT 9:09 PM EDT
Nautical Twilight 5:08 AM EDT 9:46 PM EDT
Astronomical Twilight 4:27 AM EDT 10:27 PM EDT
Moon 2:04 AM EDT (7/21) 4:21 PM EDT (7/21)
Length of Visible Light 15h 23m
Length of Day
14h 23m
Waning Crescent, 24% of the Moon is Illuminated
Jul 21
Waning Crescent
Jul 26
New
Aug 3
First Quarter
Aug 10
Full
Aug 17
Last Quarter

Hourly Weather History & Observations

Time (EDT) Temp. Heat Index Dew Point Humidity Pressure Visibility Wind Dir Wind Speed Gust Speed Precip Events Conditions
12:15 AM 68.4 °F - 63.7 °F 85% 30.18 in 10.0 mi Calm Calm - N/A   Overcast
12:35 AM 69.1 °F - 63.5 °F 82% 30.19 in 10.0 mi Calm Calm - N/A   Overcast
12:55 AM 69.3 °F - 63.5 °F 82% 30.19 in 10.0 mi Calm Calm - N/A   Overcast
1:15 AM 68.9 °F - 63.1 °F 82% 30.18 in 10.0 mi Calm Calm - N/A   Overcast
1:35 AM 68.4 °F - 63.3 °F 84% 30.18 in 10.0 mi Calm Calm - N/A   Overcast
1:55 AM 68.2 °F - 63.5 °F 85% 30.18 in 10.0 mi Calm Calm - N/A   Overcast
2:15 AM 67.6 °F - 63.5 °F 87% 30.17 in 10.0 mi Calm Calm - N/A   Overcast
2:35 AM 67.5 °F - 63.5 °F 87% 30.17 in 10.0 mi North 3.5 mph - N/A   Overcast
2:55 AM 66.7 °F - 63.5 °F 89% 30.17 in 7.0 mi Calm Calm - N/A   Overcast
3:15 AM 66.6 °F - 63.5 °F 90% 30.17 in 7.0 mi North 4.6 mph - N/A   Overcast
3:35 AM 66.9 °F - 63.7 °F 89% 30.17 in 7.0 mi North 3.5 mph - N/A   Overcast
3:55 AM 66.4 °F - 63.5 °F 90% 30.17 in 7.0 mi Calm Calm - N/A   Overcast
4:15 AM 66.6 °F - 63.7 °F 90% 30.17 in 7.0 mi Calm Calm - N/A   Overcast
4:35 AM 67.1 °F - 63.7 °F 89% 30.17 in 7.0 mi Calm Calm - N/A   Overcast
4:55 AM 66.7 °F - 63.9 °F 90% 30.18 in 7.0 mi Calm Calm - N/A   Overcast
5:15 AM 66.6 °F - 63.7 °F 90% 30.18 in 7.0 mi Calm Calm - N/A   Overcast
5:35 AM 66.2 °F - 63.5 °F 91% 30.18 in 7.0 mi NNE 3.5 mph - N/A   Mostly Cloudy
5:55 AM 65.7 °F - 63.3 °F 92% 30.19 in 5.0 mi Calm Calm - N/A   Scattered Clouds
6:15 AM 64.9 °F - 62.8 °F 93% 30.19 in 2.5 mi Calm Calm - N/A   Clear
6:35 AM 63.9 °F - 61.7 °F 93% 30.20 in 1.8 mi Calm Calm - N/A   Mist
6:55 AM 64.4 °F - 62.6 °F 94% 30.20 in 2.5 mi Calm Calm - N/A   Scattered Clouds
7:15 AM 65.5 °F - 63.5 °F 93% 30.21 in 3.0 mi Calm Calm - N/A   Overcast
7:55 AM 66.4 °F - 64.4 °F 93% 30.22 in 4.0 mi Calm Calm - N/A   Overcast
8:15 AM 67.3 °F - 64.6 °F 91% 30.23 in 5.0 mi Calm Calm - N/A   Overcast
8:35 AM 68.7 °F - 64.6 °F 87% 30.23 in 7.0 mi Calm Calm - N/A   Overcast
8:55 AM 69.3 °F - 64.4 °F 84% 30.23 in 7.0 mi Calm Calm - N/A   Overcast
9:35 AM 70.7 °F - 65.3 °F 83% 30.24 in 7.0 mi North 3.5 mph - N/A   Overcast
9:55 AM 71.6 °F - 65.5 °F 81% 30.24 in 10.0 mi NNE 3.5 mph - N/A   Overcast
10:35 AM 75.4 °F - 64.9 °F 70% 30.24 in 10.0 mi Calm Calm - N/A   Mostly Cloudy
10:55 AM 75.2 °F - 65.3 °F 71% 30.23 in 10.0 mi Calm Calm - N/A   Overcast
11:15 AM 74.8 °F - 65.1 °F 72% 30.23 in 10.0 mi ENE 5.8 mph - N/A   Overcast
11:35 AM 77.4 °F - 65.5 °F 67% 30.23 in 10.0 mi East 3.5 mph - N/A   Mostly Cloudy
11:55 AM 75.2 °F - 64.0 °F 68% 30.24 in 10.0 mi Calm Calm - N/A   Mostly Cloudy
12:15 PM 76.1 °F - 64.4 °F 67% 30.24 in 10.0 mi ESE 4.6 mph - N/A   Overcast
12:35 PM 77.9 °F - 64.8 °F 64% 30.23 in 10.0 mi East 5.8 mph - N/A   Overcast
12:55 PM 78.1 °F - 64.4 °F 63% 30.23 in 10.0 mi East 8.1 mph - N/A   Overcast
1:15 PM 78.4 °F - 64.0 °F 61% 30.22 in 10.0 mi East 5.8 mph - N/A   Mostly Cloudy
1:35 PM 80.1 °F 81.7 °F 64.0 °F 58% 30.21 in 10.0 mi Calm Calm - N/A   Scattered Clouds
1:55 PM 81.1 °F 82.5 °F 63.7 °F 55% 30.20 in 10.0 mi Calm Calm - N/A   Clear
2:15 PM 81.0 °F 82.5 °F 63.7 °F 56% 30.20 in 10.0 mi East 3.5 mph - N/A   Clear
2:35 PM 82.0 °F 83.4 °F 64.0 °F 54% 30.19 in 10.0 mi SE 3.5 mph - N/A   Scattered Clouds
2:55 PM 82.4 °F 83.7 °F 63.9 °F 53% 30.19 in 10.0 mi ENE 8.1 mph - N/A   Scattered Clouds
3:15 PM 81.1 °F 82.4 °F 63.1 °F 54% 30.19 in 10.0 mi SSE 3.5 mph - N/A   Scattered Clouds
3:35 PM 81.1 °F 82.5 °F 63.5 °F 55% 30.19 in 10.0 mi ESE 4.6 mph - N/A   Scattered Clouds
3:55 PM 81.0 °F 82.5 °F 63.9 °F 56% 30.19 in 10.0 mi SE 4.6 mph - N/A   Scattered Clouds
4:15 PM 80.2 °F 81.9 °F 64.0 °F 58% 30.19 in 10.0 mi ESE 4.6 mph - N/A   Scattered Clouds
4:35 PM 80.2 °F 81.6 °F 63.3 °F 56% 30.19 in 10.0 mi ESE 3.5 mph - N/A   Scattered Clouds
4:55 PM 81.7 °F 83.3 °F 64.6 °F 56% 30.18 in 10.0 mi East 5.8 mph - N/A   Clear
5:15 PM 80.8 °F 82.2 °F 63.5 °F 56% 30.18 in 10.0 mi SE 4.6 mph - N/A   Clear
5:35 PM 80.6 °F 82.2 °F 64.2 °F 57% 30.18 in 10.0 mi Calm Calm - N/A   Clear
5:55 PM 80.4 °F 82.1 °F 64.2 °F 58% 30.19 in 10.0 mi ESE 5.8 mph - N/A   Scattered Clouds
6:15 PM 79.3 °F - 64.8 °F 61% 30.19 in 10.0 mi SSE 8.1 mph - N/A   Scattered Clouds
6:35 PM 78.3 °F - 64.6 °F 63% 30.19 in 10.0 mi SSE 4.6 mph - N/A   Clear
6:55 PM 77.7 °F - 65.1 °F 65% 30.20 in 10.0 mi SE 3.5 mph - N/A   Clear
7:15 PM 77.2 °F - 64.9 °F 66% 30.19 in 10.0 mi SE 3.5 mph - N/A   Clear
7:35 PM 76.5 °F - 64.8 °F 67% 30.19 in 10.0 mi SE 4.6 mph - N/A   Clear
7:55 PM 75.9 °F - 64.8 °F 68% 30.20 in 10.0 mi SE 4.6 mph - N/A   Clear
8:15 PM 75.4 °F - 64.6 °F 69% 30.19 in 10.0 mi Calm Calm - N/A   Clear
8:35 PM 74.3 °F - 64.2 °F 71% 30.20 in 10.0 mi SE 3.5 mph - N/A   Clear
8:55 PM 73.9 °F - 63.9 °F 71% 30.20 in 10.0 mi Calm Calm - N/A   Clear
9:15 PM 73.4 °F - 63.9 °F 72% 30.21 in 10.0 mi Calm Calm - N/A   Clear
9:55 PM 72.7 °F - 64.2 °F 75% 30.23 in 10.0 mi Calm Calm - N/A   Clear
10:15 PM 72.1 °F - 64.2 °F 76% 30.23 in 10.0 mi Calm Calm - N/A   Clear
10:35 PM 71.6 °F - 64.0 °F 77% 30.24 in 10.0 mi Calm Calm - N/A   Scattered Clouds
10:55 PM 70.9 °F - 64.2 °F 79% 30.24 in 10.0 mi Calm Calm - N/A   Scattered Clouds
11:15 PM 70.9 °F - 64.4 °F 80% 30.24 in 10.0 mi Calm Calm - N/A   Mostly Cloudy
11:35 PM 70.0 °F - 64.4 °F 82% 30.24 in 10.0 mi Calm Calm - N/A   Mostly Cloudy
11:55 PM 68.9 °F - 64.4 °F 86% 30.24 in 10.0 mi Calm Calm - N/A   Scattered Clouds